EW1937 Weather Reports


time (UTC)temp
C
wind
direction
speed
KPH
gust
KPH
rain 1hr
cm
rain 24hr
cm
rain mn
cm
humidity
%
barometer
mb
20260504034521 13 18 0.0 0.0 0.00 0.00 0.00 39 903.6
20260504033016 15 33 0.0 0.0 0.00 0.00 0.00 37 903.2
20260504031514 15 34 0.0 0.0 0.00 0.00 0.00 36 903.0
20260504030015 15 33 0.0 0.0 0.00 0.00 0.00 36 902.8
20260504024508 16 34 0.0 0.0 0.00 0.00 0.00 34 902.7
20260504023007 17 46 0.0 0.0 0.00 0.00 0.00 32 902.7
20260504021547 17 14 0.0 0.0 0.00 0.00 0.00 31 902.5
20260504020039 18 46 0.0 0.0 0.00 0.00 0.00 30 902.5
20260504014524 19 32 0.0 0.0 0.00 0.00 0.00 27 902.3
20260504013022 20 360 0.0 0.0 0.00 0.00 0.00 25 902.4
20260504011517 21 39 0.0 0.0 0.00 0.00 0.00 22 902.2
20260504010016 22 339 0.0 0.0 0.00 0.00 0.00 23 902.2
20260504004532 22 323 0.0 0.0 0.00 0.00 0.00 22 902.2
20260504003017 22 329 0.0 0.0 0.00 0.00 0.00 21 902.2
20260504001528 22 335 0.0 0.0 0.00 0.00 0.00 22 902.4
20260504000012 22 319 0.0 0.0 0.00 0.00 0.00 22 902.4
20260503234553 22 310 0.0 0.0 0.00 0.00 0.00 22 902.5
20260503233053 22 312 0.0 0.0 0.00 0.00 0.00 21 902.6
20260503231539 23 323 0.0 0.0 0.00 0.00 0.00 20 902.6
20260503230055 22 297 0.0 0.0 0.00 0.00 0.00 22 902.5
20260503224536 22 281 0.0 0.0 0.00 0.00 0.00 21 902.7
20260503223035 22 326 0.0 0.0 0.00 0.00 0.00 21 902.9
20260503221535 22 316 0.0 0.0 0.00 0.00 0.00 22 903.0
20260503220036 22 322 0.0 0.0 0.00 0.00 0.00 22 903.2
20260503214542 22 288 0.0 0.0 0.00 0.00 0.00 21 903.4
20260503213032 22 295 0.0 0.0 0.00 0.00 0.00 21 903.6
20260503211517 22 338 0.0 0.0 0.00 0.00 0.00 22 903.7
20260503210015 22 317 0.0 0.0 0.00 0.00 0.00 21 903.9
20260503204514 22 312 0.0 0.0 0.00 0.00 0.00 22 904.1
20260503203009 22 321 0.0 0.0 0.00 0.00 0.00 22 904.3
20260503201504 21 316 0.0 0.0 0.00 0.00 0.00 22 904.3
20260503200002 21 274 0.0 0.0 0.00 0.00 0.00 22 904.5
20260503194624 21 319 0.0 0.0 0.00 0.00 0.00 23 904.7
20260503193058 21 271 0.0 0.0 0.00 0.00 0.00 23 904.9
20260503191537 21 297 0.0 0.0 0.00 0.00 0.00 23 905.2
20260503190041 21 333 0.0 0.0 0.00 0.00 0.00 24 905.4
20260503184518 20 280 0.0 0.0 0.00 0.00 0.00 25 905.6
20260503183014 20 272 0.0 0.0 0.00 0.00 0.00 25 905.8
20260503181609 20 284 0.0 0.0 0.00 0.00 0.00 25 905.9
20260503180059 20 321 0.0 0.0 0.00 0.00 0.00 24 906.1
20260503174611 20 295 0.0 0.0 0.00 0.00 0.00 25 906.2
20260503173058 20 321 0.0 0.0 0.00 0.00 0.00 24 906.4
20260503171555 19 316 0.0 0.0 0.00 0.00 0.00 25 906.4
20260503170105 18 316 0.0 0.0 0.00 0.00 0.00 26 906.5
20260503081547 1 321 0.0 0.0 0.00 0.00 0.00 77 909.2
20260503071541 2 321 0.0 0.0 0.00 0.00 0.00 77 909.6
20260503054545 7 39 0.0 0.0 0.00 0.00 0.00 64 909.9
20260503053045 7 242 0.0 0.0 0.00 0.00 0.00 66 910.0
20260503051544 5 274 0.0 0.0 0.00 0.00 0.00 73 910.0
20260503050041 6 331 0.0 0.0 0.00 0.00 0.00 65 909.8
20260503044557 8 32 0.0 0.0 0.00 0.00 0.00 60 909.8
20260503043035 9 317 0.0 0.0 0.00 0.00 0.00 55 909.8
20260503041536 9 170 0.0 0.0 0.00 0.00 0.00 54 909.7
20260503040023 10 169 0.0 0.0 0.00 0.00 0.00 51 909.8